KINEIS-1E

Last updated on Fri Sep 11 2026 00:02:53 GMT+0000 (Coordinated Universal Time)

1 60083U 24114E 26253.52019051 .00000462 00000+0 66692-4 0 9994 2 60083 97.8935 275.6001 0001314 317.9180 42.1931 14.80766147120017
UTC large
Height (km)
Speed (km/s)
/
Latitude / Longitude
Inclination (degrees)
Orbital Period (minutes)
Azimuth
Elevation
Range (km)
Doppler Factor

Next 0 passes for location: London (51.5072 / 0.1276)

No passes found over London.
KINEIS-1E